Shreveport Downtown, LA

9:52 AM CDT on July 20, 2017 (GMT -0500)
Shreveport Downtown

Weather History for KDTN - April, 2014

Change the Weather History Date:

Sunday, April 6, 2014

  Actual Average (KBAD) Record (KBAD)
Temperature  
Mean Temperature 48 °F -  
Max Temperature 52 °F 71 °F 84 °F (2001)
Min Temperature 46 °F 52 °F 41 °F (2009)
Degree Days  
Heating Degree Days 16    
Moisture  
Dew Point 46 °F    
Average Humidity 92    
Maximum Humidity 100    
Minimum Humidity 80    
Precipitation  
Precipitation 2.57 in - - ()
Sea Level Pressure  
Sea Level Pressure 29.84 in    
Wind  
Wind Speed 7 mph (NE)    
Max Wind Speed 14 mph    
Max Gust Speed 21 mph    
Visibility 6 miles    
Events Rain , Thunderstorm    
Averages and records for this station are not official NWS values.
T = Trace of Precipitation, MM = Missing Value Source: NWS Daily Summary

Daily Weather History Graph

Daily Weather History Graph

Search for Another Location

Airport or City:

Trip Planner

Search our weather history database for the weather conditions in past years. The results will help you decide how hot, cold, wet, or windy it might be!

Date:

Astronomy

Apr. 06, 2014 Rise Set
Actual Time 6:56 AM CDT 7:38 PM CDT
Civil Twilight 6:31 AM CDT 8:03 PM CDT
Nautical Twilight 6:02 AM CDT 8:32 PM CDT
Astronomical Twilight 5:32 AM CDT 9:02 PM CDT
Moon 12:08 PM CDT (4/6) 1:24 AM CDT (4/6)
Length of Visible Light 13h 31m
Length of Day
12h 41m
Waxing Crescent, 44% of the Moon is Illuminated
Apr 6
Waxing Crescent
Apr 7
First Quarter
Apr 15
Full
Apr 22
Last Quarter
Apr 29
New

Hourly Weather History & Observations

Time (CDT) Temp. Windchill Dew Point Humidity Pressure Visibility Wind Dir Wind Speed Gust Speed Precip Events Conditions
12:41 AM 48.2 °F - 42.8 °F 82% 30.00 in 10.0 mi ENE 5.8 mph - 0.01 in Thunderstorm Overcast
12:53 AM 48.9 °F - 43.0 °F 80% 30.06 in 10.0 mi South 4.6 mph - 0.01 in   Overcast
1:53 AM 48.0 °F - 44.1 °F 86% 29.96 in 10.0 mi SE 10.4 mph - 0.06 in Rain Light Rain
2:53 AM 48.9 °F - 44.1 °F 83% 29.97 in 10.0 mi NNE 3.5 mph - 0.00 in   Overcast
3:53 AM 48.9 °F - 45.0 °F 86% 29.97 in 10.0 mi North 9.2 mph - N/A   Overcast
4:53 AM 48.0 °F - 45.0 °F 89% 29.95 in 10.0 mi NE 8.1 mph - N/A   Overcast
5:42 AM 48.2 °F - 44.6 °F 87% 29.93 in 10.0 mi NE 6.9 mph - N/A   Overcast
5:53 AM 48.0 °F - 45.0 °F 89% 29.95 in 10.0 mi ENE 8.1 mph - N/A   Overcast
5:58 AM 48.2 °F - 44.6 °F 87% 29.95 in 10.0 mi ENE 6.9 mph - 0.00 in Rain , Thunderstorm Light Rain
6:15 AM 48.2 °F - 44.6 °F 87% 29.94 in 10.0 mi East 6.9 mph - 0.01 in Rain Light Rain
6:41 AM 48.2 °F - 44.6 °F 87% 29.95 in 6.0 mi NE 5.8 mph - 0.06 in Rain , Thunderstorm Light Rain
6:53 AM 48.0 °F - 45.0 °F 89% 29.94 in 8.0 mi ENE 6.9 mph - 0.07 in Rain , Thunderstorm Light Rain
7:07 AM 46.4 °F 42.9 °F 44.6 °F 93% 29.92 in 6.0 mi ENE 6.9 mph - 0.03 in Rain Light Rain
7:53 AM 48.0 °F - 46.0 °F 93% 29.92 in 9.0 mi ENE 8.1 mph - 0.05 in Rain Light Rain
8:00 AM 48.2 °F - 46.4 °F 93% 29.93 in 10.0 mi NE 6.9 mph - 0.00 in   Overcast
8:10 AM 48.2 °F - 46.4 °F 93% 29.93 in 9.0 mi NNE 9.2 mph - 0.00 in   Overcast
8:53 AM 46.9 °F - 45.0 °F 93% 29.91 in 4.0 mi NE 13.8 mph 20.7 mph 0.07 in Rain , Thunderstorm Light Thunderstorms and Rain
9:21 AM 48.2 °F - 44.6 °F 87% 29.99 in 1.8 mi Calm Calm - 0.07 in Rain , Thunderstorm Heavy Thunderstorms and Rain
9:35 AM 46.4 °F 41.5 °F 44.6 °F 93% 29.92 in 1.2 mi ENE 10.4 mph 17.3 mph 0.23 in Rain , Thunderstorm Heavy Thunderstorms and Rain
9:53 AM 46.9 °F - 46.0 °F 97% 29.91 in 2.5 mi NE 6.9 mph 17.3 mph 0.28 in Rain Rain
10:00 AM 46.4 °F 42.4 °F 44.6 °F 93% 29.93 in 5.0 mi East 8.1 mph - 0.00 in Rain Light Rain
10:17 AM 46.4 °F 42.9 °F 44.6 °F 93% 29.93 in 10.0 mi NE 6.9 mph - 0.00 in   Overcast
10:26 AM 46.4 °F 41.9 °F 44.6 °F 93% 29.90 in 6.0 mi ENE 9.2 mph - 0.01 in Rain , Thunderstorm Rain
10:36 AM 46.4 °F 41.9 °F 44.6 °F 93% 29.90 in 2.5 mi NE 9.2 mph 17.3 mph 0.05 in Rain , Thunderstorm Heavy Rain
10:48 AM 46.4 °F 41.9 °F 44.6 °F 93% 29.88 in 2.5 mi ENE 9.2 mph - 0.11 in Rain , Thunderstorm Heavy Thunderstorms and Rain
10:49 AM 46.9 °F - 45.0 °F 93% 29.89 in 2.5 mi Variable 6.9 mph - 0.12 in Rain , Thunderstorm Heavy Thunderstorms and Rain
11:05 AM 48.2 °F - 46.4 °F 93% 29.89 in 7.0 mi ENE 5.8 mph - 0.04 in Rain , Thunderstorm Light Rain
11:38 AM 48.2 °F - 46.4 °F 93% 29.86 in 10.0 mi East 8.1 mph - 0.05 in Rain Light Rain
11:53 AM 48.9 °F - 46.9 °F 93% 29.85 in 10.0 mi ENE 9.2 mph - 0.05 in   Overcast
12:31 PM 48.2 °F - 46.4 °F 93% 29.84 in 3.0 mi NE 8.1 mph - 0.03 in Rain , Thunderstorm Rain
12:53 PM 48.9 °F - 48.0 °F 97% 29.83 in 2.5 mi NNE 9.2 mph - 0.09 in Rain , Thunderstorm Rain
1:10 PM 48.2 °F - 48.2 °F 100% 29.82 in 1.2 mi NNE 6.9 mph - 0.14 in Rain , Thunderstorm Heavy Thunderstorms and Rain
1:40 PM 48.2 °F - 46.4 °F 93% 29.79 in 3.0 mi NNE 8.1 mph - 0.31 in Rain , Thunderstorm Light Thunderstorms and Rain
1:50 PM 48.2 °F - 46.4 °F 93% 29.77 in 1.8 mi NE 9.2 mph - 0.38 in Rain , Thunderstorm Heavy Thunderstorms and Rain
1:53 PM 48.9 °F - 46.9 °F 93% 29.75 in 1.5 mi NNE 12.7 mph 18.4 mph 0.40 in Rain , Thunderstorm Heavy Thunderstorms and Rain
2:37 PM 48.2 °F - 46.4 °F 93% 29.80 in 1.5 mi North 9.2 mph - 0.43 in Rain , Thunderstorm Heavy Thunderstorms and Rain
2:53 PM 48.9 °F - 46.9 °F 93% 29.78 in 1.8 mi ENE 12.7 mph 17.3 mph 0.52 in Rain , Thunderstorm Thunderstorms and Rain
3:00 PM 48.2 °F - 46.4 °F 93% 29.77 in 2.5 mi NE 11.5 mph 18.4 mph 0.03 in Rain , Thunderstorm Heavy Thunderstorms and Rain
3:11 PM 48.2 °F - 46.4 °F 93% 29.78 in 1.2 mi Variable 6.9 mph 16.1 mph 0.19 in Rain , Thunderstorm Heavy Thunderstorms and Rain
3:16 PM 48.2 °F - 46.4 °F 93% 29.77 in 0.8 mi NE 8.1 mph - 0.31 in Rain , Thunderstorm Heavy Thunderstorms and Rain
3:24 PM 48.2 °F - 46.4 °F 93% 29.77 in 1.0 mi ENE 5.8 mph - 0.44 in Rain , Thunderstorm Heavy Thunderstorms and Rain
3:33 PM 48.2 °F - 46.4 °F 93% 29.74 in 0.8 mi East 13.8 mph 19.6 mph 0.62 in Rain , Thunderstorm Heavy Rain
3:39 PM 48.2 °F - 48.2 °F 100% 29.72 in 1.2 mi ENE 12.7 mph 20.7 mph 0.64 in Rain , Thunderstorm Heavy Rain
3:43 PM 50.0 °F - 48.2 °F 94% 29.73 in 2.0 mi ENE 10.4 mph 20.7 mph 0.65 in Rain Heavy Rain
3:53 PM 50.0 °F - 48.0 °F 93% 29.76 in 5.0 mi NE 3.5 mph 17.3 mph 0.67 in Rain Light Rain
4:04 PM 50.0 °F - 48.2 °F 94% 29.74 in 2.5 mi ENE 9.2 mph - 0.06 in Rain Heavy Rain
4:22 PM 50.0 °F - 48.2 °F 94% 29.71 in 4.0 mi ENE 6.9 mph - 0.12 in Rain Rain
4:53 PM 50.0 °F - 48.0 °F 93% 29.72 in 7.0 mi NE 6.9 mph - 0.16 in Rain Light Rain
5:02 PM 51.8 °F - 48.2 °F 88% 29.70 in 8.0 mi ENE 8.1 mph - 0.00 in Rain Light Rain
5:15 PM 51.8 °F - 48.2 °F 88% 29.70 in 10.0 mi ENE 6.9 mph - 0.00 in Rain , Thunderstorm Light Rain
5:30 PM 51.8 °F - 48.2 °F 88% 29.72 in 10.0 mi North 5.8 mph - 0.00 in   Overcast
5:53 PM 51.1 °F - 48.9 °F 92% 29.71 in 10.0 mi ENE 4.6 mph - 0.00 in   Overcast
6:53 PM 51.1 °F - 48.9 °F 92% 29.70 in 10.0 mi NE 5.8 mph - N/A   Overcast
7:53 PM 51.1 °F - 48.9 °F 92% 29.71 in 10.0 mi North 4.6 mph - N/A   Overcast
8:53 PM 51.1 °F - 48.9 °F 92% 29.72 in 10.0 mi North 5.8 mph - 0.00 in   Overcast
9:36 PM 50.0 °F - 48.2 °F 94% 29.72 in 2.0 mi Calm Calm - 0.01 in   Overcast
9:50 PM 50.0 °F - 48.2 °F 94% 29.75 in 2.5 mi NNW 4.6 mph - 0.01 in   Overcast
9:53 PM 50.0 °F - 48.9 °F 96% 29.75 in 2.5 mi Calm Calm - 0.01 in   Overcast
10:32 PM 50.0 °F - 48.2 °F 94% 29.76 in 2.5 mi NW 6.9 mph - 0.01 in   Overcast
10:45 PM 50.0 °F - 48.2 °F 94% 29.75 in 3.0 mi North 3.5 mph - 0.01 in   Overcast
10:53 PM 50.0 °F - 48.0 °F 93% 29.75 in 2.5 mi North 4.6 mph - 0.01 in   Overcast
11:53 PM 50.0 °F - 48.0 °F 93% 29.71 in 10.0 mi North 4.6 mph - N/A   Overcast